DW6352 Weather Reports


time (UTC)temp
F
wind
direction
speed
knots
gust
knots
rain 1hr
in
rain 24hr
in
rain mn
in
humidity
%
barometer
mb
20260504193045 55 284 13.0 21.7 0.00 0.00 0.00 44 999.0
20260504191543 57 299 11.3 22.6 0.00 0.00 0.00 41 998.7
20260504190042 56 259 11.3 22.6 0.00 0.00 0.00 42 998.5
20260504184541 55 275 9.6 23.5 0.00 0.00 0.00 42 998.5
20260504183039 55 334 10.4 21.7 0.00 0.00 0.00 43 998.2
20260504181538 55 306 11.3 20.9 0.00 0.00 0.00 44 997.9
20260504180037 55 292 12.2 24.3 0.00 0.00 0.00 45 997.9
20260504174536 56 286 12.2 21.7 0.00 0.00 0.00 46 997.4
20260504173037 57 310 6.1 19.1 0.00 0.00 0.00 48 997.2
20260504171534 57 307 11.3 22.6 0.00 0.00 0.00 46 997.0
20260504081524 57 194 9.6 15.6 0.00 0.00 0.00 40 994.4
20260504044542 55 167 5.2 10.4 0.00 0.00 0.00 44 999.0
20260504043044 55 189 4.3 10.4 0.00 0.00 0.00 44 999.4
20260504041537 53 169 4.3 7.8 0.00 0.00 0.00 46 999.7
20260504040039 52 175 4.3 8.7 0.00 0.00 0.00 47 1000.1
20260504034536 51 173 3.5 5.2 0.00 0.00 0.00 49 1000.4
20260504033037 51 172 3.5 5.2 0.00 0.00 0.00 48 1000.8
20260504031528 52 184 2.6 4.3 0.00 0.00 0.00 48 1001.1
20260504030027 52 188 1.7 4.3 0.00 0.00 0.00 47 1001.5
20260504024525 54 236 1.7 3.5 0.00 0.00 0.00 44 1001.7
20260504023024 55 236 1.7 2.6 0.00 0.00 0.00 41 1001.7
20260504021522 57 236 1.7 2.6 0.00 0.00 0.00 38 1001.8
20260504020021 59 236 0.9 2.6 0.00 0.00 0.00 34 1002.0
20260504014522 61 241 0.9 3.5 0.00 0.00 0.00 31 1002.0
20260504013031 63 208 0.9 4.3 0.00 0.00 0.00 28 1002.0
20260504011520 64 240 1.7 4.3 0.00 0.00 0.00 27 1001.9
20260504010019 65 260 2.6 7.8 0.00 0.00 0.00 26 1002.1
20260504004518 66 264 4.3 11.3 0.00 0.00 0.00 26 1002.1
20260504003017 67 257 4.3 11.3 0.00 0.00 0.00 25 1002.2
20260504001516 68 255 5.2 13.9 0.00 0.00 0.00 24 1002.2
20260504000040 68 283 5.2 10.4 0.00 0.00 0.00 24 1002.3
20260503234513 67 267 2.6 10.4 0.00 0.00 0.00 25 1002.5
20260503233013 67 272 6.1 11.3 0.00 0.00 0.00 24 1002.7
20260503231511 67 227 6.1 15.6 0.00 0.00 0.00 23 1002.6
20260503230015 68 279 7.0 13.0 0.00 0.00 0.00 23 1002.7
20260503224510 69 242 3.5 12.2 0.00 0.00 0.00 24 1002.8
20260503223008 68 254 6.1 11.3 0.00 0.00 0.00 22 1002.8
20260503221507 68 250 7.0 15.6 0.00 0.00 0.00 24 1003.1
20260503220006 68 281 5.2 12.2 0.00 0.00 0.00 24 1003.2
20260503214503 68 261 7.0 13.9 0.00 0.00 0.00 24 1003.3
20260503213002 67 261 5.2 13.0 0.00 0.00 0.00 26 1003.5
20260503211620 67 312 5.2 12.2 0.00 0.00 0.00 24 1003.7
20260503210101 68 273 6.1 11.3 0.00 0.00 0.00 25 1003.9
20260503204559 68 306 8.7 13.9 0.00 0.00 0.00 23 1004.0
20260503203113 67 279 8.7 18.2 0.00 0.00 0.00 23 1004.1
20260503201557 67 300 8.7 16.5 0.00 0.00 0.00 23 1004.3
20260503200056 67 333 4.3 12.2 0.00 0.00 0.00 23 1004.3
20260503194557 66 342 6.1 11.3 0.00 0.00 0.00 23 1004.4